Weather in Benguela

Angola     12°36′36″S   13°25′01″E
temp.,
°C
wind,
m/s
gust,
m/s
humid.,
%
clouds,
%
prec.,
mm/h
press.,
hPa
HPBL,
m
18 september, sat
sat1801:00+20wsw22870 0.0 1014142
04:00+20ssw22874 0.0 101491
07:00+21wsw11833 0.0 1015148
10:00+23wnw437314 0.0 1015570
13:00+23wnw547233 0.0 1012519
16:00+22nw43777 0.0 1011478
19:00+21nw118161 0.0 1013318
22:00+21wsw228345 0.0 1015311
19 september, sun
sun1901:00+21sw338124 0.0 1014302
04:00+20w118370 0.0 1013132
07:00+20w11818 0.0 1015167
10:00+23w327115 0.0 1014436
13:00+22nw437439 0.0 1012432
16:00+22wnw437732 0.0 1011446
19:00+20wsw228340 0.0 1014355
22:00+21wsw22795 0.0 1014200
20 september, mon
mon2001:00+20wnw228217 0.0 1012165
04:00+20nnw118510 0.1 1012192
07:00+20nw118776 0.9 1014253
10:00+23wnw327340 0.0 1013399
13:00+23nw437734 0.0 1011392
16:00+22nw327744 0.0 1010402
19:00+21n468790 0.6 1013446
22:00+22w338245 0.0 1013206
21 september, tue
tue2101:00+21w118495 0.0 1012149
04:00+21wnw118550 0.0 1012181
07:00+21ssw008456 0.0 1013163
10:00+23nw327722 0.0 1013428
13:00+23nw437638 0.0 1011437
16:00+22nw338166 0.4 1011429
19:00+22nw2284100 0.9 1014310
22:00+22ssw348146 0.2 1013320
22 september, wed
wed2201:00+21wnw118382 0.2 1013159
04:00+21wnw238770 0.0 1011204
07:00+21nnw228725 0.0 1013241
10:00+23nnw437937 0.0 1013509
13:00+23nw448050 0.0 1011501
16:00+22wnw348299 0.1 1009516
19:00+22nnw118097 0.2 1012291
22:00+22w228025 0.0 1012192